Volver al catálogo

BREEZE-M DEB

TANK

ActivoHEO
NORAD 40884·DEBRIS·🇷🇺 Russia

Lanzado Aug 28, 2015 desde Baikonur Cosmodrome

Loading…

Próximos Pases (próximas 24 horas)

TLE

ActualizadoSource: Space-Track

Época: Sep 13, 2026, 21:41 UTC

1 40884U 15042C   26256.90410551  .00000506  00000-0  25485-3 0  9990
2 40884  50.7797 309.8862 5113938  94.3364 323.1090  5.36462558213497

Sigue BREEZE-M DEB en tiempo real con AllMySat

Download on the App Store